Current KEP TLE Data for 5/20/2015 Altas V launch of 10 Cubesats
Below are KEP TLE sets associated with the 5/20/2015 Altas V launch from Cape Canaveral of a primary payload and 10 cubesats. Since these objects remain close together, the KEP sets have not been associated with any specific object. We will have to wait until enough separation has occurred to identify each individual object. This data courtesy of http://cubesat.org
Thursday, May 28 16:30 UTC
ULTRASat1 1 90720U 15148.55800340 +.00015915 +00000-0 +41830-3 0 00151 2 90720 054.9957 305.7261 0249626 201.7290 191.9953 15.12934264001200 ULTRASat2 1 90721U 15148.55880183 +.00021762 +00000-0 +56569-3 0 00135 2 90721 054.9970 305.7165 0249435 201.7510 197.7276 15.13029622001208 ULTRASat3 1 90722U 15148.55988628 +.00024288 +00000-0 +63095-3 0 00148 2 90722 054.9917 305.7171 0249333 201.7254 202.1603 15.12996790001202 ULTRASat4 1 90723U 15148.56049123 +.00010056 +00000-0 +27012-3 0 00123 2 90723 054.9948 305.7217 0249980 201.6664 202.3594 15.12772433001061 ULTRASat5 1 90724U 15148.49354887 +.00009887 +00000-0 +26946-3 0 00127 2 90724 055.0103 306.0668 0250262 201.0171 186.6917 15.12357949001191 ULTRASat6 1 90725U 15148.43160443 +.00017459 +00000-0 +46574-3 0 00140 2 90725 055.0086 306.3265 0249761 200.8643 210.1314 15.12441351001185 ULTRASat7 1 90726U 15148.42781326 +.00013069 +00000-0 +35246-3 0 00135 2 90726 055.0081 306.3680 0249815 200.8687 189.0823 15.12394338001181 ULTRASat8 1 90727U 15148.43204319 +.00016865 +00000-0 +45053-3 0 00133 2 90727 055.0123 306.3380 0249797 200.7527 212.2775 15.12424359001189 ULTRASat9 1 90728U 15148.49387326 +.00017050 +00000-0 +45481-3 0 00110 2 90728 055.0131 306.0678 0249967 200.9166 188.8458 15.12425085001033 ULTRASat10 1 90729U 15148.55978801 +.00010570 +00000-0 +28186-3 0 00148 2 90729 055.0058 305.7490 0250157 201.7152 201.2267 15.12876352001201
participants (1)
-
Ray Hoad